Binghamton, NY

2:18 PM EDT on September 18, 2019 (GMT -0400)
Binghamton Regional-Link

Weather History for KBGM - August, 2019

Change the Weather History Date:

Saturday, August 24, 2019

  Actual Average Record
Temperature  
Mean Temperature 59 °F 66 °F  
Max Temperature 67 °F 76 °F 87 °F (1954)
Min Temperature 51 °F 57 °F 38 °F (1971)
Degree Days  
Heating Degree Days 6 2  
Month to date heating degree days 13 25  
Since 1 June heating degree days 107 140  
Since 1 July heating degree days 13 49  
Cooling Degree Days 0 3  
Month to date cooling degree days 100 91  
Year to date cooling degree days 360 326  
Since 1 June cooling degree days 353 303  
Growing Degree Days 8 (Base 50)    
Moisture  
Dew Point 49 °F    
Average Humidity 71    
Maximum Humidity 89    
Minimum Humidity 52    
Precipitation  
Precipitation 0.00 in 0.11 in 1.80 in (1975)
Month to date precipitation 3.19 2.69  
Year to date precipitation 28.57 25.45  
Snow  
Snow 0.00 in 0.00 in 0.00 in (2002)
Month to date snowfall 0.0 0.0  
Since 1 June snowfall 0.0 0.0  
Since 1 July snowfall 0.0 0.0  
Snow Depth 0.00 in    
Sea Level Pressure  
Sea Level Pressure 30.23 in    
Wind  
Wind Speed 7 mph (North)    
Max Wind Speed 15 mph    
Max Gust Speed 20 mph    
Visibility 10 miles    
Events      
T = Trace of Precipitation, MM = Missing Value Source: NWS Daily Summary

Daily Weather History Graph

Daily Weather History Graph

Search for Another Location

Airport or City:

Astronomy

Aug. 24, 2019 Rise Set
Actual Time 6:20 AM EDT 7:51 PM EDT
Civil Twilight 5:51 AM EDT 8:20 PM EDT
Nautical Twilight 5:15 AM EDT 8:55 PM EDT
Astronomical Twilight 4:37 AM EDT 9:33 PM EDT
Moon 12:10 AM EDT (8/24) 3:07 PM EDT (8/24)
Length of Visible Light 14h 29m
Length of Day
13h 30m
Last Quarter, 39% of the Moon is Illuminated
Aug 24
Last Quarter
Aug 30
New
Sep 5
First Quarter
Sep 14
Full
Sep 21
Last Quarter

Hourly Weather History & Observations

Time (EDT) Temp. Dew Point Humidity Pressure Visibility Wind Dir Wind Speed Gust Speed Precip Events Conditions
12:53 AM 55.9 °F 50.0 °F 80% 30.16 in 10.0 mi NW 3.5 mph - N/A   Clear
1:53 AM 55.0 °F 50.0 °F 83% 30.17 in 10.0 mi NW 5.8 mph - N/A   Overcast
2:08 AM 55.0 °F 50.0 °F 83% 30.17 in 10.0 mi NNW 6.9 mph - N/A   Mostly Cloudy
2:53 AM 55.9 °F 51.1 °F 84% 30.17 in 10.0 mi North 5.8 mph - N/A   Mostly Cloudy
3:53 AM 54.0 °F 50.0 °F 86% 30.17 in 10.0 mi North 6.9 mph - N/A   Mostly Cloudy
4:53 AM 53.1 °F 48.9 °F 86% 30.17 in 10.0 mi North 6.9 mph - N/A   Partly Cloudy
5:53 AM 52.0 °F 48.0 °F 86% 30.19 in 10.0 mi North 6.9 mph - N/A   Clear
6:53 AM 52.0 °F 48.0 °F 86% 30.22 in 10.0 mi NNE 4.6 mph - N/A   Clear
7:53 AM 55.0 °F 48.0 °F 77% 30.25 in 10.0 mi North 5.8 mph - N/A   Clear
8:53 AM 57.0 °F 50.0 °F 77% 30.25 in 10.0 mi North 6.9 mph - N/A   Clear
9:53 AM 61.0 °F 48.0 °F 62% 30.25 in 10.0 mi North 5.8 mph - N/A   Clear
10:53 AM 63.0 °F 48.0 °F 58% 30.25 in 10.0 mi North 9.2 mph - N/A   Clear
11:53 AM 63.0 °F 46.9 °F 56% 30.25 in 10.0 mi North 10.4 mph - N/A   Overcast
12:53 PM 64.0 °F 48.0 °F 56% 30.24 in 10.0 mi North 8.1 mph - N/A   Overcast
1:53 PM 64.0 °F 46.9 °F 54% 30.24 in 10.0 mi North 10.4 mph - N/A   Mostly Cloudy
2:53 PM 64.9 °F 48.9 °F 56% 30.24 in 10.0 mi NNE 11.5 mph - N/A   Overcast
3:53 PM 66.9 °F 48.9 °F 52% 30.23 in 10.0 mi NNE 8.1 mph - N/A   Overcast
4:53 PM 64.9 °F 48.9 °F 56% 30.23 in 10.0 mi North 6.9 mph - N/A   Scattered Clouds
5:53 PM 64.0 °F 50.0 °F 60% 30.25 in 10.0 mi NNE 8.1 mph - N/A   Overcast
6:53 PM 62.1 °F 50.0 °F 65% 30.25 in 10.0 mi NNE 6.9 mph - N/A   Overcast
7:53 PM 61.0 °F 51.1 °F 70% 30.27 in 10.0 mi North 8.1 mph - N/A   Overcast
8:53 PM 60.1 °F 52.0 °F 75% 30.28 in 10.0 mi North 9.2 mph - N/A   Overcast
9:53 PM 59.0 °F 52.0 °F 78% 30.29 in 10.0 mi North 8.1 mph - N/A   Overcast
10:53 PM 59.0 °F 51.1 °F 75% 30.30 in 10.0 mi NNE 6.9 mph - N/A   Overcast
11:53 PM 57.9 °F 51.1 °F 78% 30.30 in 10.0 mi NE 4.6 mph - N/A   Overcast